Weather History for KOFK - February, 2012

Change the Weather History Date:

Friday, February 10, 2012

  Actual Average Record
Temperature  
Mean Temperature 17 °F 25 °F  
Max Temperature 30 °F 36 °F 70 °F (1951)
Min Temperature 3 °F 15 °F -23 °F (1905)
Degree Days  
Heating Degree Days 48 40  
Month to date heating degree days 370 406  
Since 1 July heating degree days 3949 4428  
Cooling Degree Days 0 0  
Month to date cooling degree days 0 0  
Year to date cooling degree days 0 0  
Moisture  
Dew Point 0 °F    
Average Humidity 56    
Maximum Humidity 69    
Minimum Humidity 42    
Precipitation  
Precipitation T in 0.03 in 0.50 in (1944)
Month to date precipitation 0.39 0.25  
Year to date precipitation 0.57 0.84  
Snow  
Snow T in 0.20 in - ()
Month to date snowfall 1.8 2.2  
Since 1 July snowfall 12.0 19.5  
Snow Depth 0.00 in    
Sea Level Pressure  
Sea Level Pressure 30.41 in    
Wind  
Wind Speed 21 mph (NNW)    
Max Wind Speed 33 mph    
Max Gust Speed 40 mph    
Visibility 10 miles    
Events Snow    
T = Trace of Precipitation, MM = Missing Value Source: NWS Daily Summary

Daily Weather History Graph

Daily Weather History Graph

Search for Another Location

Airport or City:

Trip Planner

Search our weather history database for the weather conditions in past years. The results will help you decide how hot, cold, wet, or windy it might be!

Date:

Astronomy

Feb. 10, 2012 Rise Set
Actual Time 7:32 AM CST 5:55 PM CST
Civil Twilight 7:03 AM CST 6:24 PM CST
Nautical Twilight 6:30 AM CST 6:57 PM CST
Astronomical Twilight 5:58 AM CST 7:30 PM CST
Moon 9:40 PM CST (2/10) 8:37 AM CST (2/10)
Length of Visible Light 11h 20m
Length of Day
10h 22m
Waning Gibbous, 90% of the Moon is Illuminated
Feb 10
Waning Gibbous
Feb 14
Last Quarter
Feb 21
New
Feb 29
First Quarter
Mar 8
Full

Hourly Weather History & Observations

Time (CST) Temp. Windchill Dew Point Humidity Pressure Visibility Wind Dir Wind Speed Gust Speed Precip Events Conditions
12:36 AM 28.4 °F 13.8 °F 19.4 °F 69% 30.11 in 10.0 mi NNW 25.3 mph 31.1 mph N/A   Overcast
12:56 AM 27.0 °F 11.9 °F 18.0 °F 69% 30.17 in 10.0 mi North 25.3 mph 29.9 mph N/A   Overcast
1:56 AM 24.1 °F 9.0 °F 15.1 °F 69% 30.20 in 10.0 mi North 21.9 mph 32.2 mph N/A   Overcast
2:56 AM 21.0 °F 4.3 °F 14.0 °F 74% 30.22 in 7.0 mi North 24.2 mph 31.1 mph 0.00 in Snow Light Snow
3:17 AM 19.4 °F 1.8 °F 12.2 °F 74% 30.16 in 10.0 mi NNW 25.3 mph 32.2 mph 0.00 in   Overcast
3:56 AM 16.0 °F -1.7 °F 1.9 °F 54% 30.24 in 10.0 mi NNW 21.9 mph 28.8 mph 0.00 in   Clear
4:56 AM 14.0 °F -2.5 °F 1.0 °F 56% 30.27 in 10.0 mi NNW 17.3 mph 26.5 mph N/A   Clear
5:56 AM 12.0 °F -6.9 °F -0.0 °F 59% 30.30 in 10.0 mi NNW 21.9 mph - N/A   Clear
6:56 AM 10.9 °F -8.3 °F -0.0 °F 61% 30.34 in 10.0 mi NNW 21.9 mph 28.8 mph N/A   Clear
7:56 AM 10.0 °F -9.1 °F -2.0 °F 58% 30.36 in 10.0 mi NNW 20.7 mph 34.5 mph N/A   Clear
8:56 AM 12.0 °F -8.1 °F -2.9 °F 51% 30.38 in 10.0 mi NNW 25.3 mph 31.1 mph N/A   Clear
9:56 AM 14.0 °F -5.8 °F -2.9 °F 47% 30.38 in 10.0 mi North 26.5 mph 36.8 mph N/A   Clear
10:56 AM 16.0 °F -2.1 °F -2.0 °F 45% 30.41 in 10.0 mi NNW 23.0 mph 38.0 mph N/A   Clear
11:56 AM 16.0 °F -3.8 °F -4.0 °F 41% 30.42 in 10.0 mi NNW 28.8 mph 36.8 mph N/A   Clear
12:56 PM 18.0 °F 1.3 °F -2.0 °F 41% 30.42 in 10.0 mi NNW 20.7 mph 33.4 mph N/A   Clear
1:56 PM 18.0 °F -1.1 °F -2.0 °F 41% 30.43 in 10.0 mi NNW 28.8 mph 34.5 mph N/A   Clear
2:56 PM 18.0 °F -0.2 °F -2.9 °F 40% 30.45 in 10.0 mi NNW 25.3 mph 33.4 mph N/A   Clear
3:56 PM 15.1 °F -3.3 °F -4.0 °F 43% 30.48 in 10.0 mi North 23.0 mph 31.1 mph N/A   Clear
4:56 PM 12.0 °F -6.9 °F -5.1 °F 46% 30.51 in 10.0 mi North 21.9 mph 32.2 mph N/A   Clear
5:56 PM 9.0 °F -10.5 °F -6.0 °F 51% 30.55 in 10.0 mi North 20.7 mph 28.8 mph N/A   Clear
6:56 PM 7.0 °F -10.4 °F -6.0 °F 55% 30.58 in 10.0 mi NNW 15.0 mph - N/A   Clear
7:56 PM 7.0 °F -11.6 °F -6.0 °F 55% 30.61 in 10.0 mi NNW 17.3 mph 23.0 mph N/A   Clear
8:56 PM 5.0 °F -11.6 °F -5.1 °F 63% 30.64 in 10.0 mi NNW 12.7 mph - N/A   Clear
9:56 PM 5.0 °F -14.2 °F -7.1 °F 58% 30.66 in 10.0 mi NNW 17.3 mph - N/A   Clear
10:56 PM 3.9 °F -13.0 °F -7.1 °F 60% 30.69 in 10.0 mi NNW 12.7 mph 21.9 mph N/A   Clear
11:56 PM 3.0 °F -12.5 °F -7.1 °F 63% 30.70 in 10.0 mi NNW 10.4 mph - N/A   Clear